[[{"header":{"parameterUnit":"m.s-1","parameterCategory":1,"la1":30.2991,"la2":30.254,"lo1":-89.0895,"lo2":-89.0444,"dy":0.0017,"dx":0.0017,"nx":28,"ny":28,"refTime":"2025-07-20T09:00:00:Z","depth":0,"parameterNumber":2,"parameterNumberName":"U-component_of_WINDS"},"data":[0,0,0,0,0,0,0,0,0,0,0,0,0,0,0,0,0,0,0,0,0,0,0,0,0,0,0,0,0,0,0,0,0,0,0,0,0,0,0,0,0,0,0,0,0,0,0,0,0,0,0,0,0,0,0,0,0,0,2.1002,2.1003,0,2.1118,2.1119,2.1121,2.1114,2.1113,2.1111,2.1109,2.123,2.1235,2.124,0,0,0,0,0,0,0,0,0,0,0,0,0,2.0775,2.0779,2.1002,2.1004,2.1005,2.1118,2.1119,2.1121,2.1115,2.1113,2.1111,2.1109,2.1229,2.1234,2.124,0,0,0,0,0,0,0,0,0,0,0,0,0,2.0881,2.0781,2.1002,2.1015,2.1018,2.1118,2.112,2.1121,2.1115,2.1113,2.111,2.1108,2.1227,2.1234,2.1241,2.1336,0,0,2.1263,2.1266,0,0,0,0,0,0,0,0,2.0875,2.0889,2.1012,2.1015,2.1017,2.1099,2.1084,2.1193,2.1116,2.1078,2.1109,2.1107,2.1189,2.1199,2.1226,2.1341,2.1346,2.1264,2.1268,2.1271,2.1273,0,0,0,0,0,0,0,2.0867,2.0884,2.1048,2.1014,2.1017,2.1016,2.1028,2.1105,2.1146,2.1081,2.1081,2.1095,2.119,2.1219,2.1229,2.1348,2.1263,2.127,2.1274,2.1277,2.1544,2.1547,0,0,0,0,0,0,2.0857,2.0878,2.1044,2.1051,2.0938,2.1022,2.1035,2.1076,2.1145,2.1154,2.1097,2.1094,2.1208,2.1221,2.1233,2.1347,2.1271,2.1278,2.1282,2.1541,2.1544,2.1547,0,0,0,0,0,0,2.0852,2.0872,2.104,2.0965,2.0986,2.1028,2.1073,2.1079,2.1109,2.1157,2.1165,2.1119,2.1207,2.1223,2.1309,2.1351,2.1281,2.1287,2.1538,2.1542,2.1546,2.1576,0,0,0,0,0,0,2.0846,2.087,2.0907,2.0966,2.099,2.1114,2.1076,2.1083,2.1121,2.1118,2.118,2.1188,2.1206,2.1299,2.1317,2.136,2.1293,2.1534,2.154,2.1545,2.1572,2.1581,2.1589,0,0,0,0,0,2.0838,2.0912,2.0909,2.0929,2.1036,2.1116,2.113,2.1149,2.1124,2.1161,2.1192,2.1186,2.1344,2.1308,2.1328,2.1374,2.1532,2.1538,2.1544,2.1568,2.1579,2.1589,0,0,0,0,0,0,2.0858,2.092,2.0917,2.1012,2.1059,2.1115,2.1162,2.1161,2.1216,2.1211,2.1233,2.1247,2.1333,2.1362,2.1321,2.1468,2.1434,2.1445,2.1446,2.1457,2.1465,2.1456,2.1299,0,0,0,0,0,2.0873,2.0933,2.0984,2.1063,2.1086,2.112,2.1156,2.1166,2.1215,2.1235,2.1272,2.1321,2.1381,2.1421,2.1479,2.1576,2.1588,2.1617,2.1626,2.1632,2.1641,2.1693,2.1705,2.1568,2.1568,2.1568,0,0,2.0906,2.0947,2.0984,2.1068,2.1105,2.1166,2.1137,2.1203,2.1248,2.1246,2.1328,2.1357,2.1413,2.1504,2.1546,2.1531,2.1682,2.164,2.1645,2.1651,2.17,2.1713,2.1725,2.1572,2.1572,2.1571,0,0,2.0997,2.1034,2.1103,2.1141,2.1197,2.1218,2.1235,2.1291,2.1309,2.1393,2.1391,2.1445,2.1549,2.1588,2.1622,2.1724,2.1721,2.1743,2.1787,2.1837,2.1848,2.1858,2.1893,2.1905,2.1751,2.1751,2.1751,0,2.1031,2.1122,2.1139,2.1205,2.1241,2.124,2.1309,2.1345,2.1418,2.1443,2.1425,2.1553,2.1591,2.169,2.1715,2.1742,2.1761,2.1736,2.1845,2.1855,2.1864,2.1898,2.1911,2.1754,2.1753,2.1753,2.1753,0,2.116,2.1223,2.1272,2.134,2.1382,2.145,2.1477,2.1517,2.1523,2.1546,2.163,2.1675,2.1741,2.1765,2.1773,2.1865,2.1854,2.184,2.1807,2.1879,2.1911,2.1924,2.1757,2.1756,2.1755,2.1755,0,0,2.1268,2.1343,2.1361,2.1391,2.1452,2.1501,2.1568,2.1631,2.1665,2.1714,2.177,2.1857,2.1843,2.1881,2.1893,2.1937,2.2013,2.1917,2.1919,2.1932,2.2116,2.2125,2.214,2.201,2.2013,2.2015,2.2111,0,2.1364,2.1482,2.1498,2.1602,2.1659,2.1658,2.1716,2.1759,2.1782,2.1834,2.186,2.192,2.1899,2.1922,2.1965,2.1994,2.205,2.1988,2.2062,2.2065,2.2048,2.2157,2.2168,2.2256,2.2124,2.2126,2.2127,0,2.1492,2.1543,2.1652,2.1703,2.1728,2.178,2.1838,2.1888,2.1936,2.195,2.1991,2.1996,2.2065,2.2028,2.2122,2.208,2.2111,2.213,2.2134,2.2141,2.21,2.2167,2.2285,2.2298,2.2147,2.2146,2.2144,0,2.1558,2.1655,2.1732,2.1758,2.1819,2.1855,2.1883,2.1929,2.1965,2.2016,2.204,2.2099,2.2131,2.2176,2.2197,2.2169,2.2289,2.2255,2.2302,2.2301,2.2327,2.2325,2.2451,2.2348,2.2348,2.2348,2.2348,0,2.1663,2.173,2.1762,2.181,2.1884,2.1901,2.1974,2.2,2.2041,2.2093,2.2096,2.2144,2.2169,2.2222,2.2238,2.2313,2.2328,2.234,2.2344,2.234,2.2338,2.236,2.2354,2.2352,2.2351,2.235,2.2349,0,2.175,2.1774,2.1858,2.1909,2.1923,2.1975,2.2018,2.2064,2.2085,2.2151,2.2168,2.2202,2.2264,2.2289,2.2365,2.2376,2.2461,2.2461,2.2445,2.2446,2.249,2.2485,2.2635,2.2655,2.254,2.2541,2.2542,0,2.1815,2.1866,2.1921,2.1956,2.1984,2.204,2.2076,2.2095,2.2133,2.219,2.2229,2.229,2.234,2.2439,2.2471,2.2529,2.2529,2.2577,2.2538,2.2531,2.2528,2.2525,2.2529,2.2584,2.2585,2.2586,2.2587,0,2.1928,2.1937,2.1989,2.2045,2.2088,2.2133,2.2177,2.2205,2.2231,2.2273,2.2335,2.2374,2.245,2.2511,2.257,2.2598,2.2597,2.2599,2.2613,2.2609,2.2597,2.2603,2.2464,2.2596,2.2595,2.2594,2.2594,2.2593,2.2005,2.2049,2.2094,2.2152,2.2186,2.2227,2.2271,2.2298,2.235,2.2413,2.2421,2.2487,2.2533,2.2611,2.2642,2.2694,2.2681,2.2702,2.2707,2.2711,2.2713,2.2589,2.2705,2.2705,2.2705,2.2704,2.2704,0,2.2117,2.2145,2.2198,2.2258,2.2303,2.2296,2.2344,2.2382,2.244,2.2482,2.2531,2.2601,2.2659,2.2695,2.2753,2.2788,2.2789,2.2803,2.28,2.2806,2.2722,2.2704,2.2801,2.2801,2.2801,2.2801,2.2801,2.2801,2.218,2.2254,2.2268,2.2358,2.2386,2.245,2.2478,2.2515,2.2548,2.2626,2.2674,2.2696,2.2736,2.2796,2.2849,2.2858,2.2879,2.2894,2.2902,2.2822,2.2812,2.2803,2.2786,2.2898,2.2898,2.2981,2.2982,2.2982]},{"header":{"parameterUnit":"m.s-1","parameterCategory":1,"la1":30.2991,"la2":30.254,"lo1":-89.0895,"lo2":-89.0444,"dy":0.0017,"dx":0.0017,"nx":28,"ny":28,"refTime":"2025-07-20T09:00:00:Z","depth":0,"parameterNumber":3,"parameterNumberName":"V-component_of_WINDS"},"data":[0,0,0,0,0,0,0,0,0,0,0,0,0,0,0,0,0,0,0,0,0,0,0,0,0,0,0,0,0,0,0,0,0,0,0,0,0,0,0,0,0,0,0,0,0,0,0,0,0,0,0,0,0,0,0,0,0,0,5.0344,5.0345,0,5.0377,5.0377,5.0377,5.0302,5.03,5.0297,5.0295,5.0323,5.0326,5.0329,0,0,0,0,0,0,0,0,0,0,0,0,0,5.0212,5.0215,5.0344,5.0345,5.0345,5.0377,5.0377,5.0378,5.0303,5.03,5.0297,5.0294,5.0322,5.0326,5.033,0,0,0,0,0,0,0,0,0,0,0,0,0,5.0259,5.0215,5.0344,5.0312,5.0309,5.0377,5.0377,5.0378,5.0303,5.03,5.0296,5.0293,5.0321,5.0326,5.033,5.0429,0,0,5.0344,5.0346,0,0,0,0,0,0,0,0,5.0257,5.0264,5.0316,5.0314,5.0311,5.0332,5.0341,5.0395,5.0304,5.0305,5.0295,5.0291,5.0329,5.0332,5.0346,5.043,5.0431,5.0344,5.0347,5.0349,5.035,0,0,0,0,0,0,0,5.0253,5.0262,5.0357,5.0317,5.0314,5.0293,5.0296,5.035,5.0337,5.0305,5.03,5.0305,5.0327,5.0342,5.0346,5.0432,5.0344,5.0348,5.0351,5.0352,5.0597,5.0601,0,0,0,0,0,0,5.0255,5.026,5.0356,5.0358,5.0275,5.0299,5.0302,5.0329,5.0336,5.0334,5.0308,5.0301,5.0336,5.0341,5.0347,5.0462,5.0349,5.0353,5.0355,5.0593,5.0598,5.0602,0,0,0,0,0,0,5.0252,5.0264,5.0355,5.0308,5.0318,5.0305,5.0336,5.0331,5.0347,5.0338,5.0335,5.0326,5.0334,5.0341,5.0409,5.0462,5.0355,5.0359,5.0589,5.0595,5.06,5.0695,0,0,0,0,0,0,5.0249,5.0264,5.0303,5.0309,5.032,5.0418,5.0339,5.0335,5.0355,5.0347,5.0355,5.0352,5.0331,5.0403,5.0414,5.0466,5.0362,5.0584,5.0591,5.0598,5.0687,5.0703,5.0717,0,0,0,0,0,5.0245,5.0327,5.0305,5.0317,5.0369,5.0422,5.0428,5.0403,5.036,5.0398,5.0392,5.0352,5.0455,5.0411,5.0422,5.0477,5.058,5.0589,5.0598,5.068,5.07,5.0716,0,0,0,0,0,0,5.0326,5.0328,5.0303,5.0391,5.0407,5.0409,5.0456,5.0425,5.0453,5.0444,5.041,5.0413,5.0487,5.0489,5.0439,5.0572,5.051,5.0521,5.0569,5.0587,5.0602,5.06,5.0366,0,0,0,0,0,5.0355,5.0399,5.0397,5.0475,5.0484,5.0469,5.0491,5.0471,5.0485,5.0491,5.049,5.0505,5.054,5.0564,5.0596,5.0687,5.0686,5.073,5.0745,5.0757,5.0767,5.0814,5.0833,5.063,5.063,5.063,0,0,5.0413,5.042,5.0449,5.0491,5.0501,5.0546,5.0475,5.0526,5.0558,5.0498,5.0563,5.0563,5.0576,5.0656,5.0691,5.066,5.0823,5.0768,5.0778,5.0781,5.0825,5.0844,5.0861,5.0636,5.0635,5.0634,0,0,5.0543,5.0553,5.0618,5.063,5.0647,5.0636,5.0652,5.0658,5.0656,5.0721,5.0677,5.0714,5.0776,5.0787,5.0801,5.0934,5.0898,5.0945,5.1024,5.107,5.1086,5.11,5.1146,5.1163,5.0955,5.0956,5.0956,0,5.0613,5.0681,5.0655,5.0709,5.0728,5.0677,5.0742,5.0754,5.0779,5.0793,5.0757,5.0834,5.0839,5.092,5.0953,5.0966,5.0982,5.0944,5.1086,5.11,5.1112,5.1156,5.1174,5.0961,5.0961,5.096,5.096,0,5.0766,5.0813,5.0863,5.0891,5.0915,5.0974,5.0956,5.0983,5.0961,5.0953,5.1019,5.1024,5.1056,5.1073,5.1052,5.1151,5.1131,5.1092,5.1028,5.1138,5.1178,5.1195,5.0969,5.0967,5.0966,5.0964,0,0,5.0947,5.096,5.0979,5.099,5.1005,5.104,5.1096,5.1128,5.1152,5.1171,5.1216,5.1269,5.1232,5.1248,5.1227,5.1268,5.1371,5.1222,5.1222,5.1249,5.148,5.1509,5.1529,5.1348,5.1351,5.1353,5.1479,0,5.1075,5.1173,5.1151,5.1246,5.1288,5.1241,5.1289,5.1302,5.1296,5.133,5.1323,5.1361,5.131,5.1319,5.1357,5.1351,5.1417,5.1342,5.1387,5.1389,5.1385,5.1551,5.1582,5.17,5.1495,5.1497,5.1499,0,5.1236,5.1263,5.1364,5.137,5.1387,5.1431,5.1459,5.1492,5.1505,5.1498,5.1516,5.1487,5.1539,5.1477,5.1548,5.1497,5.1515,5.1514,5.1518,5.1521,5.145,5.1557,5.1737,5.1755,5.1524,5.1522,5.152,0,5.1358,5.1419,5.1486,5.1497,5.1507,5.1539,5.1544,5.1554,5.1575,5.1598,5.1611,5.164,5.1656,5.1678,5.1657,5.1613,5.1731,5.1667,5.1725,5.1726,5.1752,5.175,5.1937,5.1765,5.1765,5.1764,5.1764,0,5.1501,5.1564,5.1541,5.1582,5.165,5.1624,5.1691,5.1691,5.17,5.1739,5.1699,5.1736,5.1706,5.174,5.1724,5.1785,5.1793,5.1787,5.1782,5.179,5.1791,5.18,5.1791,5.1769,5.1768,5.1767,5.1766,0,5.1648,5.1635,5.1705,5.1709,5.1712,5.1762,5.1764,5.1801,5.1793,5.1843,5.1853,5.1839,5.1877,5.1858,5.1897,5.1886,5.1965,5.1949,5.1961,5.1957,5.2016,5.201,5.2214,5.2239,5.2053,5.2054,5.2056,0,5.174,5.1787,5.1797,5.1821,5.183,5.1869,5.189,5.1865,5.1889,5.1907,5.1942,5.1977,5.2003,5.2066,5.2058,5.2088,5.2072,5.2141,5.2076,5.2082,5.2071,5.2068,5.2072,5.2154,5.2156,5.2158,5.2159,0,5.1905,5.1896,5.1929,5.196,5.1987,5.2009,5.2028,5.205,5.2026,5.2054,5.2093,5.2114,5.2154,5.2189,5.2214,5.2217,5.2184,5.218,5.2195,5.2203,5.2208,5.2205,5.1996,5.2175,5.2173,5.2172,5.2171,5.2171,5.2026,5.2065,5.2078,5.2116,5.2128,5.2147,5.2182,5.2179,5.2211,5.2243,5.2226,5.2272,5.2282,5.2314,5.2321,5.2355,5.2327,5.2349,5.2355,5.236,5.2368,5.2204,5.236,5.2359,5.2359,5.2359,5.2358,0,5.2187,5.2193,5.2228,5.2257,5.2286,5.2254,5.2274,5.23,5.2341,5.2354,5.2382,5.2426,5.2459,5.2455,5.2485,5.2513,5.2498,5.2522,5.2519,5.252,5.2392,5.2375,5.2533,5.2533,5.2533,5.2533,5.2533,5.2533,5.2274,5.2339,5.2332,5.2402,5.2407,5.2452,5.2466,5.2482,5.2493,5.2545,5.2573,5.2571,5.2576,5.2607,5.2635,5.2633,5.2645,5.2674,5.2666,5.2546,5.2529,5.2512,5.2497,5.2677,5.2677,5.2791,5.2792,5.2793]}]]